Retour au catalogue

GORIZONT 3

ActifCommunicationsGEO
NORAD 11648·PAYLOAD·🇷🇺 Russia

Lancé Dec 28, 1979 depuis Baikonur Cosmodrome

Loading…

TLE

FraisSource: Space-Track

Époque: Sep 14, 2026, 05:26 UTC

1 11648U 79105A   26257.22689076  .00000133  00000-0  00000-0 0  9991
2 11648   5.7165 286.9820 0012552 274.3181 275.0126  1.00248468123374

Suivez GORIZONT 3 en temps réel avec AllMySat

Download on the App Store